カタログに戻る

STARLINK-36948

運用中通信SSO
NORAD 68209·PAYLOAD·🇺🇸 United States

打ち上げ Mar 17, 2026 から Vandenberg Space Force Base

Loading…

次のパス (今後24時間)

TLE

最新Source: CelesTrak SupGP

元期: Sep 15, 2026, 04:01 UTC

1 68209C 26053C   26258.16784722  .00011626  00000+0  36081-3 0  2585
2 68209  97.2848 131.9538 0001872  99.2182 197.4600 15.33439694    19

AllMySatでSTARLINK-36948をリアルタイム追跡

Download on the App Store